Time,TemperatureF,DewpointF,PressureIn,WindDirection,WindDirectionDegrees,WindSpeedMPH,WindSpeedGustMPH,Humidity,HourlyPrecipIn,Conditions,Clouds,dailyrainin,SolarRadiationWatts/m^2,SoftwareType,DateUTC
2013-03-26 00:03:00,60.0,-99.9,-100.00,North,351,1.0,6.0,-999,0.00,,,0.02,0.000000,,2013-03-26 10:03:00,
2013-03-26 00:12:00,60.0,-99.9,-100.00,North,351,1.0,6.0,-999,0.00,,,0.02,0.000000,,2013-03-26 10:12:00,
2013-03-26 00:23:00,60.0,-99.9,-100.00,North,6,2.0,7.0,-999,0.00,,,0.02,0.000000,,2013-03-26 10:23:00,
2013-03-26 00:43:00,60.0,-99.9,-100.00,North,6,2.0,7.0,-999,0.00,,,0.02,0.000000,,2013-03-26 10:43:00,
2013-03-26 00:53:00,60.0,-99.9,-100.00,North,6,2.0,7.0,-999,0.00,,,0.02,0.000000,,2013-03-26 10:53:00,
2013-03-26 01:03:00,60.0,-99.9,-100.00,North,6,2.0,7.0,-999,0.00,,,0.02,0.000000,,2013-03-26 11:03:00,
2013-03-26 01:12:00,60.0,-99.9,-100.00,North,6,2.0,7.0,-999,0.00,,,0.02,0.000000,,2013-03-26 11:12:00,
2013-03-26 01:43:00,59.0,-99.9,-100.00,North,11,2.0,11.0,-999,0.00,,,0.02,0.000000,,2013-03-26 11:43:00,
2013-03-26 01:53:00,59.0,-99.9,-100.00,North,11,2.0,11.0,-999,0.00,,,0.02,0.000000,,2013-03-26 11:53:00,
2013-03-26 02:03:00,59.0,-99.9,-100.00,North,11,2.0,11.0,-999,0.00,,,0.02,0.000000,,2013-03-26 12:03:00,
2013-03-26 02:12:00,59.0,-99.9,-100.00,North,11,2.0,11.0,-999,0.00,,,0.02,0.000000,,2013-03-26 12:12:00,
2013-03-26 02:22:00,59.0,-99.9,-100.00,North,11,2.0,11.0,-999,0.00,,,0.02,0.000000,,2013-03-26 12:22:00,
2013-03-26 02:23:00,58.0,-99.9,-100.00,SSE,159,2.0,7.0,-999,0.00,,,0.02,0.000000,,2013-03-26 12:23:00,
2013-03-26 02:43:00,58.0,-99.9,-100.00,SSE,159,2.0,7.0,-999,0.00,,,0.02,0.000000,,2013-03-26 12:43:00,
2013-03-26 02:53:00,58.0,-99.9,-100.00,SSE,159,2.0,7.0,-999,0.00,,,0.02,0.000000,,2013-03-26 12:53:00,
2013-03-26 03:03:00,58.0,-99.9,-100.00,SSE,159,2.0,7.0,-999,0.00,,,0.02,0.000000,,2013-03-26 13:03:00,
2013-03-26 03:12:00,58.0,-99.9,-100.00,SSE,159,2.0,7.0,-999,0.00,,,0.02,0.000000,,2013-03-26 13:12:00,
2013-03-26 03:23:00,58.0,-99.9,-100.00,NNE,23,2.0,6.0,-999,0.00,,,0.02,0.000000,,2013-03-26 13:23:00,
2013-03-26 03:42:00,58.0,-99.9,-100.00,NNE,23,2.0,6.0,-999,0.00,,,0.02,0.000000,,2013-03-26 13:42:00,
2013-03-26 03:52:00,58.0,-99.9,-100.00,NNE,23,2.0,6.0,-999,0.00,,,0.02,0.000000,,2013-03-26 13:52:00,
2013-03-26 04:02:00,58.0,-99.9,-100.00,NNE,23,2.0,6.0,-999,0.00,,,0.02,0.000000,,2013-03-26 14:02:00,
2013-03-26 04:12:00,58.0,-99.9,-100.00,NNE,23,2.0,6.0,-999,0.00,,,0.02,0.000000,,2013-03-26 14:12:00,
2013-03-26 04:42:00,58.0,-99.9,-100.00,North,9,2.0,7.0,-999,0.00,,,0.02,0.000000,,2013-03-26 14:42:00,
2013-03-26 04:53:00,58.0,-99.9,-100.00,North,9,2.0,7.0,-999,0.00,,,0.02,0.000000,,2013-03-26 14:53:00,
2013-03-26 05:02:00,58.0,-99.9,-100.00,North,9,2.0,7.0,-999,0.00,,,0.02,0.000000,,2013-03-26 15:02:00,
2013-03-26 05:12:00,58.0,-99.9,-100.00,North,9,2.0,7.0,-999,0.00,,,0.02,0.000000,,2013-03-26 15:12:00,
2013-03-26 05:22:00,58.0,-99.9,-100.00,North,9,2.0,7.0,-999,0.00,,,0.02,0.000000,,2013-03-26 15:22:00,
2013-03-26 05:23:00,58.0,-99.9,-100.00,North,0,2.0,7.0,-999,0.00,,,0.02,0.000000,,2013-03-26 15:23:00,
2013-03-26 05:43:00,58.0,-99.9,-100.00,North,0,2.0,7.0,-999,0.00,,,0.02,0.000000,,2013-03-26 15:43:00,
2013-03-26 05:53:00,58.0,-99.9,-100.00,North,0,2.0,7.0,-999,0.00,,,0.02,0.000000,,2013-03-26 15:53:00,
2013-03-26 06:03:00,58.0,-99.9,-100.00,North,0,2.0,7.0,-999,0.00,,,0.02,0.000000,,2013-03-26 16:03:00,
2013-03-26 06:13:00,58.0,-99.9,-100.00,North,0,2.0,7.0,-999,0.00,,,0.02,0.000000,,2013-03-26 16:13:00,
2013-03-26 06:23:00,58.0,-99.9,-100.00,NNE,12,2.0,7.0,-999,0.01,,,0.03,0.000000,,2013-03-26 16:23:00,
2013-03-26 06:43:00,58.0,-99.9,-100.00,NNE,12,2.0,7.0,-999,0.01,,,0.03,0.000000,,2013-03-26 16:43:00,
2013-03-26 06:54:00,58.0,-99.9,-100.00,NNE,12,2.0,7.0,-999,0.01,,,0.03,0.000000,,2013-03-26 16:54:00,
2013-03-26 07:03:00,58.0,-99.9,-100.00,NNE,12,2.0,7.0,-999,0.01,,,0.03,0.000000,,2013-03-26 17:03:00,
2013-03-26 07:12:00,58.0,-99.9,-100.00,NNE,12,2.0,7.0,-999,0.01,,,0.03,0.000000,,2013-03-26 17:12:00,
2013-03-26 07:23:00,58.0,-99.9,-100.00,North,359,2.0,7.0,-999,0.00,,,0.03,8.000000,,2013-03-26 17:23:00,
2013-03-26 07:43:00,58.0,-99.9,-100.00,North,359,2.0,7.0,-999,0.00,,,0.03,8.000000,,2013-03-26 17:43:00,
2013-03-26 07:53:00,58.0,-99.9,-100.00,North,359,2.0,7.0,-999,0.00,,,0.03,8.000000,,2013-03-26 17:53:00,
2013-03-26 08:03:00,58.0,-99.9,-100.00,North,359,2.0,7.0,-999,0.00,,,0.03,8.000000,,2013-03-26 18:03:00,
2013-03-26 08:12:00,58.0,-99.9,-100.00,North,359,2.0,7.0,-999,0.00,,,0.03,8.000000,,2013-03-26 18:12:00,
2013-03-26 08:23:00,59.0,-99.9,-100.00,North,8,3.0,8.0,-999,0.00,,,0.03,65.000000,,2013-03-26 18:23:00,
2013-03-26 08:42:00,59.0,-99.9,-100.00,North,8,3.0,8.0,-999,0.00,,,0.03,65.000000,,2013-03-26 18:42:00,
2013-03-26 08:53:00,59.0,-99.9,-100.00,North,8,3.0,8.0,-999,0.00,,,0.03,65.000000,,2013-03-26 18:53:00,
2013-03-26 09:03:00,59.0,-99.9,-100.00,North,8,3.0,8.0,-999,0.00,,,0.03,65.000000,,2013-03-26 19:03:00,
2013-03-26 09:12:00,59.0,-99.9,-100.00,North,8,3.0,8.0,-999,0.00,,,0.03,65.000000,,2013-03-26 19:12:00,
2013-03-26 09:23:00,60.0,-99.9,-100.00,NNE,33,1.0,8.0,-999,0.00,,,0.03,128.000000,,2013-03-26 19:23:00,
2013-03-26 09:43:00,60.0,-99.9,-100.00,NNE,33,1.0,8.0,-999,0.00,,,0.03,128.000000,,2013-03-26 19:43:00,
2013-03-26 09:53:00,60.0,-99.9,-100.00,NNE,33,1.0,8.0,-999,0.00,,,0.03,128.000000,,2013-03-26 19:53:00,
2013-03-26 10:02:00,60.0,-99.9,-100.00,NNE,33,1.0,8.0,-999,0.00,,,0.03,128.000000,,2013-03-26 20:02:00,
2013-03-26 10:13:00,60.0,-99.9,-100.00,NNE,33,1.0,8.0,-999,0.00,,,0.03,128.000000,,2013-03-26 20:13:00,
2013-03-26 10:23:00,60.0,-99.9,-100.00,ESE,102,2.0,7.0,-999,0.00,,,0.03,104.000000,,2013-03-26 20:23:00,
2013-03-26 10:43:00,60.0,-99.9,-100.00,ESE,102,2.0,7.0,-999,0.00,,,0.03,104.000000,,2013-03-26 20:43:00,
2013-03-26 10:53:00,60.0,-99.9,-100.00,ESE,102,2.0,7.0,-999,0.00,,,0.03,104.000000,,2013-03-26 20:53:00,
2013-03-26 11:02:00,60.0,-99.9,-100.00,ESE,102,2.0,7.0,-999,0.00,,,0.03,104.000000,,2013-03-26 21:02:00,
2013-03-26 11:13:00,60.0,-99.9,-100.00,ESE,102,2.0,7.0,-999,0.00,,,0.03,104.000000,,2013-03-26 21:13:00,
2013-03-26 11:23:00,62.0,-99.9,-100.00,SE,130,2.0,7.0,-999,0.00,,,0.03,328.000000,,2013-03-26 21:23:00,
2013-03-26 11:43:00,62.0,-99.9,-100.00,SE,130,2.0,7.0,-999,0.00,,,0.03,328.000000,,2013-03-26 21:43:00,
2013-03-26 11:53:00,62.0,-99.9,-100.00,SE,130,2.0,7.0,-999,0.00,,,0.03,328.000000,,2013-03-26 21:53:00,
2013-03-26 12:02:00,62.0,-99.9,-100.00,SE,130,2.0,7.0,-999,0.00,,,0.03,328.000000,,2013-03-26 22:02:00,
2013-03-26 12:12:00,62.0,-99.9,-100.00,SE,130,2.0,7.0,-999,0.00,,,0.03,328.000000,,2013-03-26 22:12:00,
2013-03-26 12:42:00,62.0,61.0,-100.00,SE,134,3.0,12.0,98,0.00,,,0.03,347.000000,,2013-03-26 22:42:00,
2013-03-26 12:52:00,62.0,61.0,-100.00,SE,134,3.0,12.0,98,0.00,,,0.03,347.000000,,2013-03-26 22:52:00,
2013-03-26 13:01:00,62.0,61.0,-100.00,SE,134,3.0,12.0,98,0.00,,,0.03,347.000000,,2013-03-26 23:01:00,
2013-03-26 13:10:00,62.0,61.0,-100.00,SE,134,3.0,12.0,98,0.00,,,0.03,347.000000,,2013-03-26 23:10:00,
2013-03-26 13:21:00,62.0,61.0,-100.00,SE,134,3.0,12.0,98,0.00,,,0.03,347.000000,,2013-03-26 23:21:00,
2013-03-26 13:43:00,63.0,59.0,-100.00,SE,125,3.0,11.0,87,0.00,,,0.03,381.000000,,2013-03-26 23:43:00,
2013-03-26 13:52:00,63.0,59.0,-100.00,SE,125,3.0,11.0,87,0.00,,,0.03,381.000000,,2013-03-26 23:52:00,
2013-03-26 14:02:00,63.0,59.0,-100.00,SE,125,3.0,11.0,87,0.00,,,0.03,381.000000,,2013-03-27 00:02:00,
2013-03-26 14:12:00,63.0,59.0,-100.00,SE,125,3.0,11.0,87,0.00,,,0.03,381.000000,,2013-03-27 00:12:00,
2013-03-26 14:21:00,63.0,59.0,-100.00,SE,125,3.0,11.0,87,0.00,,,0.03,381.000000,,2013-03-27 00:21:00,
2013-03-26 14:42:00,62.0,57.0,-100.00,ENE,71,2.0,9.0,83,0.00,,,0.01,243.000000,,2013-03-27 00:42:00,
2013-03-26 14:52:00,62.0,57.0,-100.00,ENE,71,2.0,9.0,83,0.00,,,0.01,243.000000,,2013-03-27 00:52:00,
2013-03-26 15:02:00,62.0,57.0,-100.00,ENE,71,2.0,9.0,83,0.00,,,0.01,243.000000,,2013-03-27 01:02:00,
2013-03-26 15:11:00,62.0,57.0,-100.00,ENE,71,2.0,9.0,83,0.00,,,0.01,243.000000,,2013-03-27 01:11:00,
2013-03-26 15:21:00,62.0,57.0,-100.00,ENE,71,2.0,9.0,83,0.00,,,0.01,243.000000,,2013-03-27 01:21:00,
2013-03-26 15:42:00,63.0,59.0,-100.00,SE,126,2.0,8.0,87,0.00,,,0.01,225.000000,,2013-03-27 01:42:00,
2013-03-26 15:53:00,63.0,59.0,-100.00,SE,126,2.0,8.0,87,0.00,,,0.01,225.000000,,2013-03-27 01:53:00,
2013-03-26 16:02:00,63.0,59.0,-100.00,SE,126,2.0,8.0,87,0.00,,,0.01,225.000000,,2013-03-27 02:02:00,
2013-03-26 16:12:00,63.0,59.0,-100.00,SE,126,2.0,8.0,87,0.00,,,0.01,225.000000,,2013-03-27 02:12:00,
2013-03-26 16:21:00,63.0,59.0,-100.00,SE,126,2.0,8.0,87,0.00,,,0.01,225.000000,,2013-03-27 02:21:00,
2013-03-26 16:43:00,61.0,-99.9,-100.00,ESE,121,2.0,7.0,-999,0.00,,,0.01,105.000000,,2013-03-27 02:43:00,
2013-03-26 16:53:00,61.0,-99.9,-100.00,ESE,121,2.0,7.0,-999,0.00,,,0.01,105.000000,,2013-03-27 02:53:00,
2013-03-26 17:02:00,61.0,-99.9,-100.00,ESE,121,2.0,7.0,-999,0.00,,,0.01,105.000000,,2013-03-27 03:02:00,
2013-03-26 17:12:00,61.0,-99.9,-100.00,ESE,121,2.0,7.0,-999,0.00,,,0.01,105.000000,,2013-03-27 03:12:00,
2013-03-26 17:22:00,61.0,-99.9,-100.00,ESE,121,2.0,7.0,-999,0.00,,,0.01,105.000000,,2013-03-27 03:22:00,
2013-03-26 17:23:00,61.0,-99.9,-100.00,SE,139,2.0,6.0,-999,0.00,,,0.01,84.000000,,2013-03-27 03:23:00,
2013-03-26 17:43:00,61.0,-99.9,-100.00,SE,139,2.0,6.0,-999,0.00,,,0.01,84.000000,,2013-03-27 03:43:00,
2013-03-26 17:53:00,61.0,-99.9,-100.00,SE,139,2.0,6.0,-999,0.00,,,0.01,84.000000,,2013-03-27 03:53:00,
2013-03-26 18:03:00,61.0,-99.9,-100.00,SE,139,2.0,6.0,-999,0.00,,,0.01,84.000000,,2013-03-27 04:03:00,
2013-03-26 18:14:00,61.0,-99.9,-100.00,SE,139,2.0,6.0,-999,0.00,,,0.01,84.000000,,2013-03-27 04:14:00,
2013-03-26 18:23:00,60.0,-99.9,-100.00,ENE,68,1.0,6.0,-999,0.00,,,0.01,43.000000,,2013-03-27 04:23:00,
2013-03-26 18:43:00,60.0,-99.9,-100.00,ENE,68,1.0,6.0,-999,0.00,,,0.01,43.000000,,2013-03-27 04:43:00,
2013-03-26 18:53:00,60.0,-99.9,-100.00,ENE,68,1.0,6.0,-999,0.00,,,0.01,43.000000,,2013-03-27 04:53:00,
2013-03-26 19:03:00,60.0,-99.9,-100.00,ENE,68,1.0,6.0,-999,0.00,,,0.01,43.000000,,2013-03-27 05:03:00,
2013-03-26 19:13:00,60.0,-99.9,-100.00,ENE,68,1.0,6.0,-999,0.00,,,0.01,43.000000,,2013-03-27 05:13:00,
2013-03-26 19:23:00,59.0,-99.9,-100.00,NNE,24,1.0,5.0,-999,0.00,,,0.01,4.000000,,2013-03-27 05:23:00,
2013-03-26 19:42:00,59.0,-99.9,-100.00,NNE,24,1.0,5.0,-999,0.00,,,0.01,4.000000,,2013-03-27 05:42:00,
2013-03-26 19:53:00,59.0,-99.9,-100.00,NNE,24,1.0,5.0,-999,0.00,,,0.01,4.000000,,2013-03-27 05:53:00,
2013-03-26 20:02:00,59.0,-99.9,-100.00,NNE,24,1.0,5.0,-999,0.00,,,0.01,4.000000,,2013-03-27 06:02:00,
2013-03-26 20:12:00,59.0,-99.9,-100.00,NNE,24,1.0,5.0,-999,0.00,,,0.01,4.000000,,2013-03-27 06:12:00,
2013-03-26 20:43:00,59.0,-99.9,-100.00,North,5,2.0,6.0,-999,0.00,,,0.01,0.000000,,2013-03-27 06:43:00,
2013-03-26 20:53:00,59.0,-99.9,-100.00,North,5,2.0,6.0,-999,0.00,,,0.01,0.000000,,2013-03-27 06:53:00,
2013-03-26 21:02:00,59.0,-99.9,-100.00,North,5,2.0,6.0,-999,0.00,,,0.01,0.000000,,2013-03-27 07:02:00,
2013-03-26 21:12:00,59.0,-99.9,-100.00,North,5,2.0,6.0,-999,0.00,,,0.01,0.000000,,2013-03-27 07:12:00,
2013-03-26 21:22:00,59.0,-99.9,-100.00,North,5,2.0,6.0,-999,0.00,,,0.01,0.000000,,2013-03-27 07:22:00,
2013-03-26 21:43:00,60.0,-99.9,-100.00,North,350,1.0,4.0,-999,0.00,,,0.01,0.000000,,2013-03-27 07:43:00,
2013-03-26 21:54:00,60.0,-99.9,-100.00,North,350,1.0,4.0,-999,0.00,,,0.01,0.000000,,2013-03-27 07:54:00,
2013-03-26 22:03:00,60.0,-99.9,-100.00,North,350,1.0,4.0,-999,0.00,,,0.01,0.000000,,2013-03-27 08:03:00,
2013-03-26 22:13:00,60.0,-99.9,-100.00,North,350,1.0,4.0,-999,0.00,,,0.01,0.000000,,2013-03-27 08:13:00,
2013-03-26 22:22:00,60.0,-99.9,-100.00,North,350,1.0,4.0,-999,0.00,,,0.01,0.000000,,2013-03-27 08:22:00,
2013-03-26 22:43:00,59.0,-99.9,-100.00,North,353,1.0,5.0,-999,0.00,,,0.01,0.000000,,2013-03-27 08:43:00,
2013-03-26 22:52:00,59.0,-99.9,-100.00,North,353,1.0,5.0,-999,0.00,,,0.01,0.000000,,2013-03-27 08:52:00,
2013-03-26 23:02:00,59.0,-99.9,-100.00,North,353,1.0,5.0,-999,0.00,,,0.01,0.000000,,2013-03-27 09:02:00,
2013-03-26 23:12:00,59.0,-99.9,-100.00,North,353,1.0,5.0,-999,0.00,,,0.01,0.000000,,2013-03-27 09:12:00,
2013-03-26 23:22:00,59.0,-99.9,-100.00,North,353,1.0,5.0,-999,0.00,,,0.01,0.000000,,2013-03-27 09:22:00,
2013-03-26 23:23:00,59.0,-99.9,-100.00,NNE,13,1.0,6.0,-999,0.00,,,0.01,0.000000,,2013-03-27 09:23:00,
2013-03-26 23:42:00,59.0,-99.9,-100.00,NNE,13,1.0,6.0,-999,0.00,,,0.01,0.000000,,2013-03-27 09:42:00,
2013-03-26 23:52:00,59.0,-99.9,-100.00,NNE,13,1.0,6.0,-999,0.00,,,0.01,0.000000,,2013-03-27 09:52:00,